When you browse on this site, cookies collect data to enhance your experience and personalize the content and advertising you see.
Visit our Privacy Policy to learn more. By continuing to use the site, you agree to this use of cookies and data.
  • In Schweiz
  • Länderverzeichnis
  • Für 7 Tage
  • Wassertemperatur
  • Wetterkarte
  • Widgets
  • user-avatar
    Anmelden

    Stündliche Wetter Petruhny

    Heute, 20 August, Dienstag

    Zeit Temperatur Niederschläge Wind Luftdruck Luftfeuchtigkeit
    00:00 +17°C° 0 mm 2 m/S 756 mmHg 92%
    01:00 +18°C° 0 mm 1 m/S 757 mmHg 90%
    02:00 +16°C° 0 mm 1 m/S 757 mmHg 88%
    03:00 +15°C° 0 mm 1 m/S 757 mmHg 89%
    04:00 +14°C° 0 mm 1 m/S 758 mmHg 90%
    05:00 +13°C° 0 mm 1 m/S 758 mmHg 91%
    06:00 +15°C° 0 mm 1 m/S 759 mmHg 86%
    07:00 +16°C° 0 mm 1 m/S 759 mmHg 81%
    08:00 +19°C° 0 mm 1 m/S 759 mmHg 76%
    09:00 +20°C° 0 mm 1 m/S 759 mmHg 68%
    10:00 +22°C° 0 mm 1 m/S 759 mmHg 60%
    11:00 +23°C° 0 mm 2 m/S 760 mmHg 52%
    12:00 +24°C° 0 mm 2 m/S 760 mmHg 52%
    13:00 +24°C° 0 mm 2 m/S 760 mmHg 52%
    14:00 +24°C° 0 mm 2 m/S 760 mmHg 52%
    15:00 +24°C° 0 mm 2 m/S 760 mmHg 53%
    16:00 +24°C° 0 mm 1 m/S 760 mmHg 55%
    17:00 +24°C° 0 mm 1 m/S 760 mmHg 56%
    18:00 +22°C° 0 mm 1 m/S 760 mmHg 62%
    19:00 +21°C° 0 mm 1 m/S 760 mmHg 69%
    20:00 +19°C° 0 mm 1 m/S 761 mmHg 75%
    21:00 +18°C° 0 mm 1 m/S 761 mmHg 78%
    22:00 +16°C° 0 mm 1 m/S 761 mmHg 81%
    23:00 +16°C° 0 mm 1 m/S 761 mmHg 83%

    Morgen, 21 August, Mittwoch

    Zeit Temperatur Niederschläge Wind Luftdruck Luftfeuchtigkeit
    00:00 +14°C° 0 mm 0 m/S 761 mmHg 84%
    01:00 +14°C° 0 mm 0 m/S 761 mmHg 84%
    02:00 +14°C° 0 mm 0 m/S 762 mmHg 85%
    03:00 +14°C° 0 mm 0 m/S 761 mmHg 85%
    04:00 +15°C° 0 mm 1 m/S 761 mmHg 85%
    05:00 +15°C° 0 mm 1 m/S 761 mmHg 85%
    06:00 +16°C° 0 mm 1 m/S 761 mmHg 82%
    07:00 +18°C° 0 mm 1 m/S 761 mmHg 80%
    08:00 +19°C° 0 mm 1 m/S 761 mmHg 77%
    09:00 +19°C° 0.1 mm 1 m/S 761 mmHg 78%
    10:00 +20°C° 0.1 mm 1 m/S 761 mmHg 80%
    11:00 +20°C° 0.1 mm 1 m/S 761 mmHg 81%
    12:00 +20°C° 0.1 mm 1 m/S 761 mmHg 82%
    13:00 +19°C° 0.1 mm 1 m/S 761 mmHg 84%
    14:00 +19°C° 0.1 mm 1 m/S 760 mmHg 85%
    15:00 +19°C° 0.2 mm 1 m/S 760 mmHg 87%
    16:00 +18°C° 0.2 mm 1 m/S 760 mmHg 89%
    17:00 +18°C° 0.2 mm 1 m/S 760 mmHg 92%
    18:00 +16°C° 1.5 mm 2 m/S 760 mmHg 94%
    19:00 +15°C° 1.5 mm 2 m/S 760 mmHg 96%
    20:00 +15°C° 1.5 mm 2 m/S 760 mmHg 98%
    21:00 +14°C° 0.9 mm 2 m/S 760 mmHg 97%
    22:00 +14°C° 0.9 mm 2 m/S 760 mmHg 97%
    23:00 +14°C° 0.9 mm 1 m/S 760 mmHg 97%

    übermorgen, 22 August, Donnerstag

    Zeit Temperatur Niederschläge Wind Luftdruck Luftfeuchtigkeit
    00:00 +13°C° 0 mm 2 m/S 760 mmHg 97%
    01:00 +13°C° 0 mm 2 m/S 761 mmHg 97%
    02:00 +13°C° 0 mm 2 m/S 761 mmHg 97%
    03:00 +12°C° 0 mm 2 m/S 761 mmHg 97%
    04:00 +12°C° 0 mm 2 m/S 761 mmHg 97%
    05:00 +10°C° 0 mm 2 m/S 761 mmHg 98%
    06:00 +13°C° 0 mm 2 m/S 761 mmHg 95%
    07:00 +14°C° 0 mm 2 m/S 762 mmHg 92%
    08:00 +15°C° 0 mm 2 m/S 762 mmHg 89%
    09:00 +17°C° 0 mm 2 m/S 762 mmHg 79%
    10:00 +19°C° 0 mm 2 m/S 762 mmHg 69%
    11:00 +20°C° 0 mm 2 m/S 762 mmHg 59%
    12:00 +21°C° 0 mm 2 m/S 762 mmHg 57%
    13:00 +21°C° 0 mm 2 m/S 762 mmHg 54%
    14:00 +23°C° 0 mm 2 m/S 762 mmHg 51%
    15:00 +23°C° 0 mm 2 m/S 762 mmHg 55%
    16:00 +23°C° 0 mm 2 m/S 762 mmHg 58%
    17:00 +23°C° 0 mm 2 m/S 762 mmHg 62%
    18:00 +20°C° 0 mm 2 m/S 762 mmHg 69%
    19:00 +18°C° 0 mm 2 m/S 762 mmHg 76%
    20:00 +16°C° 0 mm 2 m/S 762 mmHg 83%
    21:00 +15°C° 0 mm 2 m/S 763 mmHg 85%
    22:00 +14°C° 0 mm 2 m/S 763 mmHg 86%
    23:00 +13°C° 0 mm 1 m/S 763 mmHg 87%

    23 August, Freitag

    Zeit Temperatur Niederschläge Wind Luftdruck Luftfeuchtigkeit
    00:00 +13°C° 0 mm 1 m/S 763 mmHg 87%
    01:00 +12°C° 0 mm 1 m/S 763 mmHg 86%
    02:00 +12°C° 0 mm 1 m/S 763 mmHg 86%
    03:00 +12°C° 0 mm 1 m/S 763 mmHg 86%
    04:00 +12°C° 0 mm 1 m/S 763 mmHg 86%
    05:00 +11°C° 0 mm 1 m/S 763 mmHg 86%
    06:00 +13°C° 0 mm 1 m/S 763 mmHg 81%
    07:00 +15°C° 0 mm 1 m/S 764 mmHg 77%
    08:00 +16°C° 0 mm 1 m/S 764 mmHg 72%
    09:00 +18°C° 0 mm 2 m/S 764 mmHg 66%
    10:00 +19°C° 0 mm 2 m/S 764 mmHg 61%
    11:00 +21°C° 0 mm 3 m/S 764 mmHg 55%
    12:00 +21°C° 0 mm 3 m/S 764 mmHg 53%
    13:00 +22°C° 0 mm 3 m/S 763 mmHg 51%
    14:00 +22°C° 0 mm 3 m/S 763 mmHg 48%
    15:00 +22°C° 0 mm 3 m/S 763 mmHg 53%
    16:00 +23°C° 0 mm 2 m/S 763 mmHg 58%
    17:00 +21°C° 0 mm 2 m/S 763 mmHg 63%
    18:00 +19°C° 0 mm 2 m/S 763 mmHg 69%
    19:00 +18°C° 0 mm 1 m/S 763 mmHg 75%
    20:00 +15°C° 0 mm 1 m/S 763 mmHg 81%
    21:00 +15°C° 0 mm 1 m/S 763 mmHg 82%
    22:00 +14°C° 0 mm 1 m/S 763 mmHg 84%
    23:00 +14°C° 0 mm 2 m/S 763 mmHg 85%

    24 August, Samstag

    Zeit Temperatur Niederschläge Wind Luftdruck Luftfeuchtigkeit
    00:00 +14°C° 0 mm 2 m/S 763 mmHg 85%
    01:00 +14°C° 0 mm 2 m/S 763 mmHg 85%
    02:00 +14°C° 0 mm 2 m/S 763 mmHg 86%
    03:00 +13°C° 0 mm 3 m/S 763 mmHg 85%
    04:00 +14°C° 0 mm 3 m/S 763 mmHg 85%
    05:00 +14°C° 0 mm 3 m/S 762 mmHg 85%
    06:00 +16°C° 0 mm 3 m/S 762 mmHg 82%
    07:00 +17°C° 0 mm 3 m/S 762 mmHg 79%
    08:00 +18°C° 0 mm 3 m/S 762 mmHg 76%
    09:00 +19°C° 0 mm 4 m/S 762 mmHg 70%
    10:00 +20°C° 0 mm 4 m/S 762 mmHg 64%
    11:00 +22°C° 0 mm 4 m/S 762 mmHg 58%
    12:00 +23°C° 0 mm 4 m/S 762 mmHg 56%
    13:00 +23°C° 0 mm 5 m/S 761 mmHg 53%
    14:00 +25°C° 0 mm 5 m/S 761 mmHg 51%
    15:00 +25°C° 0 mm 4 m/S 761 mmHg 55%
    16:00 +23°C° 0 mm 4 m/S 761 mmHg 58%
    17:00 +24°C° 0 mm 3 m/S 761 mmHg 62%
    18:00 +21°C° 0 mm 3 m/S 760 mmHg 68%
    19:00 +19°C° 0 mm 2 m/S 760 mmHg 74%
    20:00 +18°C° 0 mm 2 m/S 760 mmHg 80%
    21:00 +17°C° 0 mm 2 m/S 760 mmHg 83%
    22:00 +16°C° 0 mm 2 m/S 760 mmHg 85%
    23:00 +16°C° 0 mm 2 m/S 760 mmHg 88%

    25 August, Sonntag

    Zeit Temperatur Niederschläge Wind Luftdruck Luftfeuchtigkeit
    00:00 +15°C° 0 mm 2 m/S 760 mmHg 90%
    01:00 +15°C° 0 mm 2 m/S 760 mmHg 93%
    02:00 +14°C° 0 mm 2 m/S 760 mmHg 95%
    03:00 +14°C° 0 mm 2 m/S 760 mmHg 95%
    04:00 +15°C° 0 mm 2 m/S 760 mmHg 94%
    05:00 +15°C° 0 mm 2 m/S 760 mmHg 94%
    06:00 +15°C° 0 mm 2 m/S 761 mmHg 91%
    07:00 +16°C° 0 mm 2 m/S 761 mmHg 88%
    08:00 +17°C° 0 mm 2 m/S 761 mmHg 84%
    09:00 +18°C° 0 mm 2 m/S 761 mmHg 79%
    10:00 +20°C° 0 mm 2 m/S 761 mmHg 73%
    11:00 +22°C° 0 mm 1 m/S 761 mmHg 67%
    12:00 +22°C° 0.1 mm 1 m/S 761 mmHg 65%
    13:00 +23°C° 0.1 mm 1 m/S 761 mmHg 62%
    14:00 +23°C° 0.1 mm 1 m/S 760 mmHg 59%
    15:00 +23°C° 0.1 mm 1 m/S 760 mmHg 63%
    16:00 +22°C° 0.1 mm 1 m/S 760 mmHg 67%
    17:00 +22°C° 0.1 mm 1 m/S 760 mmHg 71%
    18:00 +20°C° 0 mm 1 m/S 760 mmHg 74%
    19:00 +18°C° 0 mm 1 m/S 760 mmHg 78%
    20:00 +16°C° 0 mm 1 m/S 760 mmHg 81%
    21:00 +15°C° 0 mm 1 m/S 760 mmHg 80%
    22:00 +15°C° 0 mm 1 m/S 760 mmHg 79%
    23:00 +14°C° 0 mm 1 m/S 761 mmHg 79%
    Mehr zeigen